#timestamp,LO_Frequency,Hit,StdDev 
1559246415.0,286047002.1,N
1559246415.9,286047002.1,N
1559246435.8,286047002.3,N
1559246455.6,286047002.4,N
1559246475.5,286047002.4,N
1559246495.3,286047002.5,N
1559246515.1,286047002.7,N
1559246535.9,286047000.2,N
1559246555.7,286047000.5,N
1559246575.5,286046999.4,N
1559246595.4,286046998.5,N
1559246615.2,286046999.1,N
1559246635.0,286047001.2,N
1559246636.0,286047001.2,N
1559246655.8,286047003.7,N
1559246675.6,286047001.4,N
1559246695.5,286047004.2,N
1559246715.3,286047004.0,N
1559246735.1,286047002.7,N
1559246755.9,286047005.5,N
1559246775.7,286047003.3,N
1559246795.5,286047001.9,N
1559246815.4,286047002.1,N
1559246835.2,286047005.6,N
1559246855.1,286047005.9,N
1559246856.0,286047005.9,N
1559246875.8,286047003.6,N
1559246895.6,286047005.7,N
1559246915.5,286047007.3,Y
1559246935.3,286047005.6,P
1559246955.2,286047003.6,N
1559246975.9,286047001.4,N
1559246995.7,286047003.4,N
1559247015.6,286047004.7,Y
1559247035.4,286047000.1,P
1559247055.2,286047001.6,N
1559247075.1,286046999.9,N
1559247076.0,286046999.9,N
1559247095.8,286046999.8,N
1559247115.7,286047003.7,N
1559247135.5,286047004.1,N
1559247155.3,286047003.8,N
1559247175.2,286047007.5,Y
1559247195.0,286047003.2,P
1559247195.9,286047003.2,P
1559247215.7,286047001.8,N
1559247235.6,286047002.8,Y
1559247255.4,286047000.0,P
1559247275.3,286047000.2,N
1559247295.1,286046998.4,N
1559247296.0,286046998.4,N
1559247315.8,286047000.2,N
1559247335.7,286047002.4,N
1559247355.5,286047002.1,N
1559247375.3,286047002.8,N
1559247395.2,286047002.1,N
1559247415.0,286046998.2,N
1559247415.9,286046998.2,N
1559247435.8,286047000.4,N
1559247455.6,286047000.3,N
1559247475.4,286047000.3,N
1559247495.3,286046998.9,N
1559247515.1,286047000.6,N
1559247535.8,286047002.7,N
1559247555.7,286047002.7,N
1559247575.5,286047002.0,N
1559247595.4,286047002.2,N
1559247615.2,286047001.3,N
1559247635.0,286047011.9,Y
1559247635.9,286047004.2,P
1559247655.8,286046999.7,N
1559247675.6,286047000.0,N
1559247695.5,286047005.8,Y
1559247715.3,286047002.7,P
1559247735.1,286047004.0,P
1559247755.9,286047003.9,P
1559247775.7,286047004.4,Y
1559247795.5,286046996.6,P
1559247815.4,286046996.9,N
1559247835.2,286046997.2,N
1559247855.1,286046997.0,N
1559247856.0,286046997.0,N
1559247875.8,286046999.2,N
1559247895.6,286046997.6,N
1559247915.5,286046997.5,N
1559247935.3,286046997.6,N
1559247955.1,286046997.2,N
1559247975.9,286046998.8,N
1559247995.7,286046997.6,N
1559248015.6,286046995.3,N
1559248035.4,286046995.6,N
1559248055.2,286046993.4,Y
1559248075.1,286046995.2,P
1559248076.0,286046995.2,P
1559248095.8,286046999.4,N
1559248115.6,286046997.8,N
1559248135.5,286046995.3,N
1559248155.3,286046997.9,N
1559248175.2,286046995.0,Y
1559248195.9,286047002.2,P
1559248215.7,286047002.1,N
1559248235.6,286047000.2,N
1559248255.4,286047000.1,N
1559248275.2,286047000.9,N
1559248295.1,286047002.5,N
1559248296.0,286047002.5,N
1559248315.8,286047002.3,N
1559248335.7,286047002.2,N
1559248355.5,286046999.7,N
1559248375.3,286047002.1,N
1559248395.2,286047001.6,N
1559248415.0,286047001.7,N
1559248415.9,286047001.7,N
1559248435.7,286047001.9,N
1559248455.6,286047002.2,N
1559248475.4,286047000.5,N
1559248495.3,286047000.3,N
1559248515.1,286046999.8,N
1559248516.0,286046999.8,N
1559248535.8,286047002.1,N
1559248555.7,286047002.2,N
1559248575.5,286047002.0,N
1559248595.3,286047004.0,Y
1559248615.2,286047003.9,P
1559248635.0,286047005.5,P
1559248635.9,286047005.5,P
1559248655.8,286047003.7,N
1559248675.6,286047001.3,N
1559248695.4,286046999.7,N
1559248715.3,286047001.0,N
1559248735.1,286047002.6,N
1559248755.8,286046999.9,N
1559248775.7,286046998.6,N
1559248795.5,286046998.3,N
1559248815.4,286046999.5,N
1559248835.2,286047001.2,N
1559248855.0,286047001.1,N
1559248855.9,286047001.1,N
1559248875.8,286047000.4,N
1559248895.6,286046998.2,N
1559248915.5,286047001.0,N
1559248935.3,286046999.0,N
1559248955.1,286046998.4,N
1559248975.9,286046996.8,N
1559248995.7,286046996.7,N
1559249015.5,286046997.8,N
1559249035.4,286046995.4,N
1559249055.2,286046997.2,N
1559249075.1,286046997.9,N
1559249076.0,286046997.9,N
1559249095.8,286046997.2,N
1559249115.6,286046995.3,N
1559249135.5,286046993.8,N
1559249155.3,286046993.0,N
1559249175.1,286046991.2,N
1559249195.9,286046989.7,Y
1559249215.7,286046988.7,P
1559249235.6,286046989.1,N
1559249255.4,286046990.7,N
1559249275.2,286046992.9,N
1559249295.1,286046991.0,N
1559249296.0,286046991.0,N
1559249315.8,286046992.6,N
1559249335.7,286046992.4,N
1559249355.5,286046992.2,N
1559249375.3,286046993.8,N
1559249395.2,286046993.5,N
1559249415.9,286046990.9,Y
1559249435.7,286046996.8,P
1559249455.6,286046999.1,N
1559249475.4,286046996.6,N
1559249495.2,286046997.0,N
1559249515.1,286046997.1,N
1559249516.0,286046997.1,N
1559249535.8,286046997.3,N
1559249555.7,286046999.4,N
1559249575.5,286047001.1,N
1559249625.4,286047002.0,E
1559249635.3,286047002.4,N
1559249655.1,286047000.1,P
1559249675.9,286047000.9,N
1559249695.7,286047000.1,N
1559249715.5,286047004.4,Y
1559249735.4,286047003.7,P
1559249755.2,286047006.3,P
1559249775.1,286047007.2,P
1559249776.0,286047007.2,N
1559249795.8,286047006.1,N
1559249815.6,286047008.7,Y
1559249835.5,286047003.3,P
1559249855.3,286047005.6,P
1559249875.1,286047007.3,P
1559249895.9,286047006.2,Y
1559249915.7,286047004.4,P
1559249935.6,286047005.6,P
1559249955.4,286047001.3,N
1559249975.2,286047004.8,N
1559249995.1,286047004.5,N
1559249996.0,286047004.5,Y
